Torna al catalogo

SL-12 R/B(2)

AttivoGEO
NORAD 20110·ROCKET BODY·🇷🇺 Russia

Lanciato Jul 5, 1989 da Baikonur Cosmodrome

Loading…

TLE

AggiornatoSource: Space-Track

Epoca: Sep 13, 2026, 17:35 UTC

1 20110U 89052D   26256.73288786 -.00000191  00000-0  00000-0 0  9990
2 20110  10.5407 327.9198 0034149 278.4389  75.6810  1.03061461139893

Traccia SL-12 R/B(2) in tempo reale con AllMySat

Download on the App Store